GW3786 Weather Reports


time (UTC)temp
C
wind
direction
speed
KPH
gust
KPH
rain 1hr
cm
rain 24hr
cm
rain mn
cm
humidity
%
barometer
mb
20260505101534 14 150 1.6 9.7 0.00 0.08 0.08 80 1006.0
20260505100033 15 147 1.6 6.4 0.00 0.08 0.08 79 1006.0
20260505094532 15 224 1.6 11.3 0.00 0.08 0.08 78 1005.7
20260505093031 15 253 3.2 12.9 0.00 0.08 0.08 76 1005.7
20260505091530 15 269 1.6 6.4 0.00 0.08 0.08 75 1005.7
20260505090028 15 193 1.6 12.9 0.00 0.08 0.08 75 1005.7
20260505084528 16 174 3.2 24.1 0.00 0.08 0.08 74 1005.6
20260505083028 16 210 3.2 17.7 0.00 0.08 0.08 75 1005.2
20260505081524 15 266 3.2 16.1 0.03 0.08 0.08 76 1004.9
20260505080024 15 271 4.8 19.3 0.08 0.08 0.08 78 1004.9
20260505074524 15 250 3.2 16.1 0.08 0.08 0.08 79 1004.5
20260505073024 15 88 3.2 16.1 0.08 0.08 0.08 78 1004.3
20260505072220 16 193 4.8 14.5 0.05 0.05 0.05 76 1004.2
20260505070024 17 195 4.8 16.1 0.00 0.00 0.00 71 1004.2
20260505064524 17 208 3.2 17.7 0.00 0.00 0.00 68 1004.1
20260505063024 17 210 3.2 12.9 0.00 0.00 0.00 68 1004.2
20260505061524 17 266 3.2 17.7 0.00 0.00 0.00 68 1004.1
20260505060024 17 143 3.2 12.9 0.00 0.00 0.00 69 1004.3
20260505054523 17 203 3.2 14.5 0.00 0.00 0.00 69 1004.4
20260505053721 17 72 1.6 17.7 0.00 0.00 0.00 69 1004.6
20260505051524 17 115 3.2 14.5 0.00 0.00 0.00 69 1004.9
20260505041524 17 127 3.2 14.5 0.00 0.00 0.00 69 1005.0
20260505040022 17 167 3.2 14.5 0.00 0.00 0.00 70 1005.1
20260505034522 17 134 1.6 11.3 0.00 0.00 0.00 72 1005.0
20260505033020 17 210 1.6 8.0 0.00 0.00 0.00 74 1005.0
20260505031521 17 128 0.0 6.4 0.00 0.00 0.00 74 1005.2
20260505030020 17 200 0.0 6.4 0.00 0.00 0.00 74 1005.1
20260505024519 17 215 1.6 8.0 0.00 0.00 0.00 74 1005.0
20260505023016 17 144 1.6 4.8 0.00 0.00 0.00 74 1005.1
20260505021516 16 73 1.6 3.2 0.00 0.00 0.00 74 1005.1
20260505020017 16 270 1.6 6.4 0.00 0.00 0.00 74 1005.0
20260505014516 16 211 0.0 1.6 0.00 0.00 0.00 72 1004.8
20260505013014 16 113 0.0 4.8 0.00 0.00 0.00 71 1004.9
20260505011512 16 307 0.0 3.2 0.00 0.00 0.00 71 1004.8
20260505010008 16 151 0.0 4.8 0.00 0.00 0.00 70 1004.9
20260505004506 17 207 0.0 3.2 0.00 0.00 0.00 69 1004.8
20260505003006 17 117 0.0 4.8 0.00 0.00 0.00 67 1004.6
20260505001506 18 260 0.0 6.4 0.00 0.00 0.00 65 1004.6
20260505000006 18 200 1.6 9.7 0.00 0.00 0.00 64 1004.5
20260504234506 18 76 1.6 8.0 0.00 0.00 0.00 64 1004.6
20260504232959 18 140 3.2 12.9 0.00 0.00 0.00 63 1004.6
20260504231500 19 168 3.2 16.1 0.00 0.00 0.00 61 1004.8
20260504225958 19 259 3.2 19.3 0.00 0.00 0.00 60 1004.9
20260504224458 20 54 1.6 9.7 0.00 0.00 0.00 58 1005.0
20260504222958 20 220 4.8 19.3 0.00 0.00 0.00 55 1004.8
20260504221458 21 272 6.4 27.4 0.00 0.00 0.00 54 1004.9
20260504215956 22 269 6.4 19.3 0.00 0.00 0.00 54 1004.8
20260504214455 21 250 6.4 19.3 0.00 0.00 0.00 54 1004.9
20260504212956 21 8 4.8 24.1 0.00 0.00 0.00 55 1004.9
20260504211455 21 269 6.4 29.0 0.00 0.00 0.00 56 1004.8
20260504205955 21 219 8.0 22.5 0.00 0.00 0.00 57 1005.4
20260504204455 22 254 8.0 33.8 0.00 0.00 0.00 55 1005.2
20260504203701 22 233 4.8 22.5 0.00 0.00 0.00 57 1005.3
20260504201455 22 82 6.4 25.7 0.00 0.00 0.00 57 1005.6
20260504195955 21 264 4.8 17.7 0.00 0.00 0.00 58 1005.7
20260504195155 22 156 4.8 17.7 0.00 0.00 0.00 57 1005.7
20260504192956 22 228 9.7 22.5 0.00 0.00 0.00 55 1005.8
20260504191455 22 68 4.8 19.3 0.00 0.00 0.00 58 1005.8
20260504185955 21 248 4.8 17.7 0.00 0.00 0.00 58 1005.8
20260504184455 21 217 4.8 17.7 0.00 0.00 0.00 59 1006.1
20260504182956 21 126 4.8 16.1 0.00 0.00 0.00 57 1006.1
20260504181456 21 111 4.8 16.1 0.00 0.00 0.00 58 1006.4
20260504175954 20 144 6.4 22.5 0.00 0.00 0.00 60 1006.4
20260504174453 20 284 4.8 14.5 0.00 0.00 0.00 61 1006.4
20260504172953 19 142 4.8 22.5 0.00 0.00 0.00 60 1006.5
20260504171453 19 161 4.8 17.7 0.00 0.00 0.00 61 1006.8
20260504150631 15 20 4.8 12.9 0.00 0.00 0.00 67 1007.9
20260504110630 9 207 3.2 9.7 0.00 0.00 0.00 72 1008.1